Location: Churchill Northern Studies Centre
(58.7378°N, 93.8201°W)
Time: 18:42:04
(UTC-06:00)

Envisat - Pass Details

Date: 09 October 2017
Orbit: 764 x 766 km, 98.2° (Epoch: 16 December)

Event Time Altitude Azimuth Distance (km) Brightness Sun altitude
Exits shadow 22:24:56 - 227° (SW) 2,535 5.7 -29.9°
Reaches altitude 10° 22:25:48 10° 234° (SW) 2,307 5.6 -30.0°
Maximum altitude 22:29:10 18° 276° (W) 1,838 5.4 -30.3°
Drops below altitude 10° 22:32:34 10° 318° (NW) 2,319 6.4 -30.6°
Sets 22:35:41 0° 337° (NNW) 3,251 7.2 -30.9°
